Вернуться в каталог

METEOR 2-11 DEB

АктивенPO
NORAD 42456·DEBRIS·🇷🇺 Russia

Запущен Jul 5, 1984 с Plesetsk Cosmodrome

Loading…

Ближайшие Пролёты (ближайшие 24 часа)

TLE

СвежийSource: Space-Track

Эпоха: Sep 14, 2026, 11:07 UTC

1 42456U 84072S   26257.46331903  .00000145  00000-0  93108-4 0  9998
2 42456  82.5424 312.0441 0041204 120.1294 240.3967 13.96221700600113

Отслеживайте METEOR 2-11 DEB в реальном времени с AllMySat

Download on the App Store